Regional Weather Roundup
Issued by NWS Green Bay, WI

Home | Current Version | Previous Version | Graphics & Text | Print | Product List | Glossary Off
Versions: 1 2 3 4 5 6 7 8 9 10 11 12 13 14 15 16 17 18 19 20 21 22 23 24 25 26 27 28 29 30 31 32 33 34 35 36 37 38 39 40 41 42 43 44 45 46 47 48 49 50

000
ASUS43 KGRB 251110
RWRGRB

NORTH-CENTRAL AND NORTHEAST WISCONSIN REGIONAL WEATHER ROUNDUP
NATIONAL WEATHER SERVICE GREEN BAY WI
500 AM CST THU DEC 25 2014

WIZ005-009-010>012-018-019-251200-
NORTH CENTRAL WISCONSIN

CITY           SKY/WX    TMP DP  RH WIND       PRES   REMARKS
IRONWOOD       CLOUDY    30  28  93 SW7       29.52R
MANITOWISH WTR CLOUDY    29  29  99 SW8       29.55R
ARBOR VITAE    CLOUDY    32  29  90 W7        29.56R
EAGLE RIVER    CLOUDY    30  28  94 W10       29.56R
LAND O LAKES   CLOUDY    30  28  92 SW6       29.55R
RHINELANDER    CLOUDY    29  27  92 W9        29.57R
PHILLIPS       CLOUDY    30  28  90 SW8       29.58R
ANTIGO         CLOUDY    29  28  93 SW9       29.60R
TOMAHAWK       CLOUDY    30  28  92 W5        29.59S
MERRILL        CLOUDY    32  30  92 W10G16    29.61R
$$

WIZ013-073-251200-
NORTHEAST WISCONSIN

CITY           SKY/WX    TMP DP  RH WIND       PRES   REMARKS
IRON MOUNTAIN  CLOUDY    33  28  81 W9        29.55R
MARINETTE      PTCLDY    32  28  86 W7        29.61R
OCONTO         CLEAR     31  30  96 W8        29.64R
$$

WIZ017-030-035>037-045-251200-
CENTRAL WISCONSIN

CITY           SKY/WX    TMP DP  RH WIND       PRES   REMARKS
MEDFORD        CLOUDY    30  27  90 SW12      29.62R
WAUSAU         CLOUDY    32  28  85 W9        29.62R
MOSINEE        NOT AVBL
MARSHFIELD     CLOUDY    32  27  81 SW12      29.65R
WISC RAPIDS    CLOUDY    32  27  81 SW10G18   29.69R
STEVENS POINT  CLOUDY    31  26  83 W10G20    29.66R
WAUPACA        CLOUDY    35  31  84 SW10      29.68R
SHAWANO        MOCLDY    32  29  88 SW3       29.65R
CLINTONVILLE   CLOUDY    32  28  86 SW6       29.66R
$$

WIZ038-039-048-051-251200-
FOX VALLEY

CITY           SKY/WX    TMP DP  RH WIND       PRES   REMARKS
NWS GREEN BAY  CLEAR     33  29  85 SW9       29.67R
APPLETON       NOT AVBL
OSHKOSH        CLOUDY    34  28  79 W7        29.69R
FOND DU LAC    CLOUDY    34  28  79 SW9       29.70R
$$

WIZ022-050-052-251200-
EAST CENTRAL WISCONSIN

CITY           SKY/WX    TMP DP  RH WIND       PRES   REMARKS
STURGEON BAY   CLOUDY    32  28  86 W14       29.64R
MANITOWOC      CLEAR     32  30  92 W10       29.69R
SHEBOYGAN      CLOUDY    34  28  79 W13       29.70R
$$

LMZ563-521-522-541>543-251200-
LAKESHORE

STATION/POSITION TIME  TEMP    WIND        PRES    VSBY  WAVE
                       AIR SEA DIR/SP/G                  HT/PER
                 (UTC) (F)     (DEG/KT/KT) (MB)    (MI)  (FT/S)
SHEBOYGAN LKSHOR 1100   36 37  260/ 12/ 15 1006.6R
KEWAUNEE LKSHORE 1100   33     260/ 10/ 15 1003.5R
ALGOMA MARINA    1100          270/ 10/ 16   N/A
NORTHPORT PIER   1100   33     250/  4/ 10 1002.0R
SISTER BAY LKSHO 1000          290/ 15/ 17   N/A
CHAMBERS ISLAND  1100   33     210/  8/ 13 1002.7R
MENOMINEE LKSHOR 1100   33     240/ 10/ 16 1003.7R
$$



USA.gov is the U.S. government's official web portal to all federal, state and local government web resources and services.